Date String (YYYY-MM-DD hh:mm:ss) UTC,Instrument flags,Ambient pressure (hPa),Sample flow (lpm),Bypass flow (lpm),Sample temperature (°C),Ambient temperature (°C),ASC tube jacket temperature (°C),LED temperature (°C),Box temperature (°C),Sample RH (%),Span deviation,Mass concentration (μg/m³),Mass concentration (μg/m³),Mass concentration (μg/m³)
DateTimeUTC,F1_M11,P_M11,Q1_M11,Q2_M11,T1_M11,T2_M11,T3_M11,T4_M11,T5_M11,U1_M11,ZSPAN_M11,X2_M11,X0_M11,X1_M11
2021-12-13 02:00:00,,0821.7,5.00,0.00,26.1,25.2,00.0,35.3,27.7,05.3,0000.0,0000.56,0001.44,0000.45
2021-12-13 02:01:00,,0821.7,5.01,0.00,26.1,25.2,00.0,35.3,27.7,05.3,0000.0,0000.54,0001.31,0000.44
2021-12-13 02:02:00,,0821.6,4.99,0.00,26.1,25.2,00.0,35.3,27.6,05.3,0000.0,0000.53,0001.23,0000.44
2021-12-13 02:03:00,,0821.6,5.00,0.00,26.0,25.1,00.0,35.3,27.6,05.3,0000.0,0000.53,0001.27,0000.43
2021-12-13 02:04:00,,0821.6,5.02,0.00,26.0,25.1,00.0,35.2,27.6,05.3,0000.0,0000.55,0001.38,0000.43
2021-12-13 02:05:00,,0821.6,4.99,0.00,26.0,25.1,00.0,35.2,27.6,05.3,0000.0,0000.54,0001.08,0000.43
2021-12-13 02:06:00,,0821.6,5.00,0.00,26.0,25.0,00.0,35.2,27.5,05.3,0000.0,0000.52,0000.74,0000.42
2021-12-13 02:07:00,,0821.6,5.01,0.00,26.0,25.0,00.0,35.2,27.5,05.3,0000.0,0000.53,0000.77,0000.42
2021-12-13 02:08:00,,0821.6,5.00,0.00,26.0,25.1,00.0,35.2,27.5,05.3,0000.0,0000.51,0000.75,0000.42
2021-12-13 02:09:00,,0821.6,4.99,0.00,26.0,25.0,00.0,35.1,27.5,05.3,0000.0,0000.52,0000.81,0000.42
2021-12-13 02:10:00,,0821.6,4.99,0.00,25.9,25.0,00.0,35.1,27.5,05.3,0000.0,0000.53,0000.90,0000.42
2021-12-13 02:11:00,,0821.6,5.01,0.00,25.9,25.0,00.0,35.1,27.5,05.3,0000.0,0000.54,0000.94,0000.42
2021-12-13 02:12:00,,0821.5,4.99,0.00,25.9,25.0,00.0,35.1,27.5,05.3,0000.0,0000.55,0000.95,0000.43
2021-12-13 02:13:00,,0821.5,5.00,0.00,25.9,25.1,00.0,35.1,27.6,05.3,0000.0,0000.54,0000.93,0000.42
2021-12-13 02:14:00,,0821.5,5.00,0.00,25.9,25.1,00.0,35.1,27.6,05.3,0000.0,0000.52,0000.88,0000.42
2021-12-13 02:15:00,,0821.5,5.00,0.00,25.9,25.1,00.0,35.1,27.6,05.3,0000.0,0000.49,0000.76,0000.42
2021-12-13 02:16:00,,0821.5,4.99,0.00,25.9,25.1,00.0,35.0,27.5,05.3,0000.0,0000.53,0000.85,0000.42
2021-12-13 02:17:00,,0821.5,5.01,0.00,25.9,25.0,00.0,35.0,27.5,05.3,0000.0,0000.53,0000.85,0000.42
2021-12-13 02:18:00,,0821.5,5.00,0.00,25.9,25.0,00.0,35.0,27.4,05.2,0000.0,0000.56,0000.88,0000.43
2021-12-13 02:19:00,,0821.6,5.00,0.00,25.9,25.0,00.0,35.0,27.5,05.2,0000.0,0000.56,0000.89,0000.44
2021-12-13 02:20:00,,0821.5,5.01,0.00,25.9,25.0,00.0,35.0,27.5,05.2,0000.0,0000.55,0000.86,0000.44
2021-12-13 02:21:00,,0821.6,5.00,0.00,25.9,25.0,00.0,35.0,27.5,05.1,0000.0,0000.54,0000.77,0000.43
2021-12-13 02:22:00,,0821.6,4.99,0.00,25.9,25.0,00.0,35.0,27.5,05.1,0000.0,0000.54,0000.77,0000.43
2021-12-13 02:23:00,,0821.7,5.00,0.00,25.9,25.0,00.0,35.0,27.6,05.1,0000.0,0000.56,0000.80,0000.43
2021-12-13 02:24:00,,0821.8,5.02,0.00,25.9,25.0,00.0,35.0,27.6,05.1,0000.0,0000.57,0000.83,0000.42
2021-12-13 02:25:00,,0821.8,4.98,0.00,25.9,25.0,00.0,35.0,27.6,05.2,0000.0,0000.58,0000.89,0000.42
2021-12-13 02:26:00,,0821.9,5.02,0.00,25.8,25.0,00.0,35.0,27.6,05.4,0000.0,0000.58,0000.86,0000.42
2021-12-13 02:27:00,,0822.1,4.99,0.00,25.8,25.0,00.0,34.9,27.6,05.4,0000.0,0000.57,0000.81,0000.42
2021-12-13 02:28:00,,0821.9,5.01,0.00,25.8,25.0,00.0,34.9,27.5,05.4,0000.0,0000.56,0000.81,0000.42
2021-12-13 02:29:00,,0822.0,5.00,0.00,25.8,25.0,00.0,34.9,27.5,05.3,0000.0,0000.54,0000.78,0000.41
2021-12-13 02:30:00,,0821.9,5.00,0.00,25.8,25.0,00.0,34.9,27.5,05.2,0000.0,0000.55,0000.80,0000.40
2021-12-13 02:31:00,,0821.9,4.99,0.00,25.8,24.9,00.0,34.9,27.5,05.1,0000.0,0000.55,0000.79,0000.40
2021-12-13 02:32:00,,0821.9,5.01,0.00,25.7,24.9,00.0,34.9,27.4,05.2,0000.0,0000.55,0000.81,0000.40
2021-12-13 02:33:00,,0822.1,4.99,0.00,25.7,24.9,00.0,34.9,27.4,05.2,0000.0,0000.56,0000.85,0000.40
2021-12-13 02:34:00,,0821.9,5.00,0.00,25.7,24.9,00.0,34.9,27.4,05.3,0000.0,0000.56,0001.09,0000.39
2021-12-13 02:35:00,,0822.0,5.00,0.00,25.7,24.9,00.0,34.8,27.3,05.4,0000.0,0000.58,0001.72,0000.39
2021-12-13 02:36:00,,0822.0,5.00,0.00,25.7,24.9,00.0,34.8,27.3,05.4,0000.0,0000.58,0001.76,0000.40
2021-12-13 02:37:00,,0822.0,5.00,0.00,25.6,24.8,00.0,34.8,27.3,05.4,0000.0,0000.59,0001.86,0000.40
2021-12-13 02:38:00,,0822.1,5.01,0.00,25.6,24.8,00.0,34.8,27.3,05.4,0000.0,0000.59,0001.90,0000.40
2021-12-13 02:39:00,,0822.1,4.98,0.00,25.6,24.8,00.0,34.8,27.3,05.4,0000.0,0000.59,0001.90,0000.41
2021-12-13 02:40:00,,0822.1,5.01,0.00,25.6,24.8,00.0,34.7,27.3,05.4,0000.0,0000.59,0001.87,0000.42
2021-12-13 02:41:00,,0822.1,5.00,0.00,25.6,24.9,00.0,34.7,27.3,05.5,0000.0,0000.58,0001.86,0000.42
2021-12-13 02:42:00,,0822.1,4.99,0.00,25.6,24.9,00.0,34.7,27.4,05.5,0000.0,0000.59,0001.90,0000.43
2021-12-13 02:43:00,,0822.1,5.01,0.00,25.6,24.9,00.0,34.7,27.4,05.5,0000.0,0000.60,0001.90,0000.43
2021-12-13 02:44:00,,0822.2,5.02,0.00,25.6,24.9,00.0,34.7,27.4,05.5,0000.0,0000.61,0001.91,0000.44
2021-12-13 02:45:00,,0822.2,4.99,0.00,25.7,25.0,00.0,34.7,27.4,05.5,0000.0,0000.61,0001.66,0000.44
2021-12-13 02:46:00,,0822.2,5.00,0.00,25.7,25.0,00.0,34.7,27.4,05.5,0000.0,0000.59,0001.04,0000.45
2021-12-13 02:47:00,,0822.2,5.00,0.00,25.7,25.0,00.0,34.7,27.5,05.4,0000.0,0000.61,0001.11,0000.46
2021-12-13 02:48:00,,0822.2,5.00,0.00,25.7,25.1,00.0,34.7,27.5,05.4,0000.0,0000.64,0001.12,0000.47
2021-12-13 02:49:00,,0822.2,5.00,0.00,25.7,25.1,00.0,34.7,27.5,05.4,0000.0,0000.64,0001.12,0000.47
2021-12-13 02:50:00,,0822.2,5.00,0.00,25.7,25.1,00.0,34.7,27.5,05.4,0000.0,0000.63,0001.10,0000.46
2021-12-13 02:51:00,,0822.2,5.01,0.00,25.7,25.1,00.0,34.7,27.5,05.4,0000.0,0000.63,0001.10,0000.46
2021-12-13 02:52:00,,0822.2,4.99,0.00,25.8,25.1,00.0,34.7,27.5,05.4,0000.0,0000.64,0001.13,0000.46
2021-12-13 02:53:00,,0822.2,5.01,0.00,25.8,25.1,00.0,34.7,27.5,05.4,0000.0,0000.64,0001.12,0000.46
2021-12-13 02:54:00,,0822.2,5.00,0.00,25.8,25.1,00.0,34.7,27.6,05.4,0000.0,0000.64,0001.10,0000.46
2021-12-13 02:55:00,,0822.3,4.99,0.00,25.8,25.2,00.0,34.7,27.6,05.4,0000.0,0000.63,0001.07,0000.47
2021-12-13 02:56:00,,0822.3,5.01,0.00,25.8,25.2,00.0,34.8,27.6,05.4,0000.0,0000.62,0001.20,0000.48
2021-12-13 02:57:00,,0822.4,4.99,0.00,25.8,25.2,00.0,34.8,27.6,05.3,0000.0,0000.62,0001.68,0000.48
2021-12-13 02:58:00,,0822.4,5.02,0.00,25.8,25.2,00.0,34.8,27.6,05.3,0000.0,0000.60,0001.86,0000.48
2021-12-13 02:59:00,,0822.4,4.98,0.00,25.8,25.2,00.0,34.8,27.6,05.4,0000.0,0000.57,0002.60,0000.47
